Tillbaka till svenska Fidonet
English   Information   Debug  
FILM   0/18
FNEWS_PUBLISH   5034
FN_SYSOP   42247
FN_SYSOP_OLD1   71952
FTP_FIDO   0/2
FTSC_PUBLIC   0/13979
FUNNY   0/4886
GENEALOGY.EUR   0/71
GET_INFO   105
GOLDED   382/408
HAM   3392/16786
HOLYSMOKE   0/6791
HOT_SITES   0/1
HTMLEDIT   0/71
HUB203   466
HUB_100   264
HUB_400   39
HUMOR   0/29
IC   0/2851
INTERNET   0/424
INTERUSER   0/3
IP_CONNECT   719
JAMNNTPD   0/233
JAMTLAND   0/47
KATTY_KORNER   0/41
LAN   0/16
LINUX-USER   0/19
LINUXHELP   0/1155
LINUX   0/22427
LINUX_BBS   0/957
mail   18.68
mail_fore_ok   249
MENSA   0/341
MODERATOR   0/102
MONTE   0/992
MOSCOW_OKLAHOMA   0/1245
MUFFIN   0/783
MUSIC   0/321
N203_STAT   938
N203_SYSCHAT   313
NET203   321
NET204   69
NET_DEV   0/10
NORD.ADMIN   0/101
NORD.CHAT   0/2572
NORD.FIDONET   189
NORD.HARDWARE   0/28
NORD.KULTUR   0/114
NORD.PROG   0/32
NORD.SOFTWARE   0/88
NORD.TEKNIK   0/58
NORD   0/453
OCCULT_CHAT   0/93
OS2BBS   0/787
OS2DOSBBS   0/580
OS2HW   0/42
OS2INET   0/37
OS2LAN   0/134
OS2PROG   0/36
OS2REXX   0/113
OS2USER-L   207
OS2   0/4835
OSDEBATE   0/18996
PASCAL   0/490
PERL   0/457
PHP   0/45
POINTS   0/405
POLITICS   0/29554
POL_INC   0/14731
PSION   103
R20_ADMIN   1133
R20_AMATORRADIO   0/2
R20_BEST_OF_FIDONET   16
R20_CHAT   0/897
R20_DEPP   0/3
R20_DEV   400
R20_ECHO2   1933
R20_ECHOPRES   0/35
R20_ESTAT   0/719
R20_FIDONETPROG...
...RAM.MYPOINT
  0/2
R20_FIDONETPROGRAM   0/22
R20_FIDONET   0/248
R20_FILEFIND   0/24
R20_FILEFOUND   0/22
R20_HIFI   0/3
R20_INFO2   3827
R20_INTERNET   0/12940
R20_INTRESSE   0/60
R20_INTR_KOM   0/99
R20_KANDIDAT.CHAT   42
R20_KANDIDAT   28
R20_KOM_DEV   112
R20_KONTROLL   0/13360
R20_KORSET   0/18
R20_LOKALTRAFIK   0/24
R20_MODERATOR   0/1852
R20_NC   76
R20_NET200   245
R20_NETWORK.OTH...
...ERNETS
  0/13
R20_OPERATIVSYS...
...TEM.LINUX
  0/44
R20_PROGRAMVAROR   0/1
R20_REC2NEC   534
R20_SFOSM   0/341
R20_SF   0/108
R20_SPRAK.ENGLISH   0/1
R20_SQUISH   107
R20_TEST   2
R20_WORST_OF_FIDONET   20
RAR   0/9
RA_MULTI   106
RA_UTIL   0/162
REGCON.EUR   0/2072
REGCON   0/13
SCIENCE   0/1206
SF   0/239
SHAREWARE_SUPPORT   0/5146
SHAREWRE   0/14
SIMPSONS   0/169
STATS_OLD1   0/2539.065
STATS_OLD2   0/2530
STATS_OLD3   0/2395.095
STATS_OLD4   0/1692.25
SURVIVOR   0/495
SYSOPS_CORNER   0/3
SYSOP   0/84
TAGLINES   0/112
TEAMOS2   0/4530
TECH   2421/2617
TEST.444   0/105
TRAPDOOR   0/19
TREK   0/755
TUB   0/290
UFO   0/40
UNIX   0/1316
USA_EURLINK   0/102
USR_MODEMS   0/1
VATICAN   0/2740
VIETNAM_VETS   0/14
VIRUS   0/378
VIRUS_INFO   0/201
VISUAL_BASIC   0/473
WHITEHOUSE   0/5187
WIN2000   0/101
WIN32   0/30
WIN95   0/4291
WIN95_OLD1   0/70272
WINDOWS   0/1517
WWB_SYSOP   0/419
WWB_TECH   491/810
ZCC-PUBLIC   0/1
ZEC   4

 
4DOS   0/134
ABORTION   0/7
ALASKA_CHAT   0/506
ALLFIX_FILE   0/1313
ALLFIX_FILE_OLD1   0/7997
ALT_DOS   0/152
AMATEUR_RADIO   0/1039
AMIGASALE   0/14
AMIGA   0/331
AMIGA_INT   0/1
AMIGA_PROG   0/20
AMIGA_SYSOP   0/26
ANIME   0/15
ARGUS   0/924
ASCII_ART   0/340
ASIAN_LINK   0/651
ASTRONOMY   0/417
AUDIO   0/92
AUTOMOBILE_RACING   0/105
BABYLON5   0/17862
BAG   135
BATPOWER   0/361
BBBS.ENGLISH   0/382
BBSLAW   0/109
BBS_ADS   0/5290
BBS_INTERNET   0/507
BIBLE   258/3563
BINKD   0/1119
BINKLEY   0/215
BLUEWAVE   0/2173
CABLE_MODEMS   0/25
CBM   0/46
CDRECORD   0/66
CDROM   0/20
CLASSIC_COMPUTER   0/378
COMICS   0/15
CONSPRCY   0/899
COOKING   42383
COOKING_OLD1   0/24719
COOKING_OLD2   0/40862
COOKING_OLD3   0/37489
COOKING_OLD4   21226/35496
COOKING_OLD5   9370
C_ECHO   0/189
C_PLUSPLUS   0/31
DIRTY_DOZEN   0/201
DOORGAMES   0/2388
DOS_INTERNET   0/196
duplikat   6102
ECHOLIST   17270/18295
EC_SUPPORT   0/318
ELECTRONICS   0/359
ELEKTRONIK.GER   1534
ENET.LINGUISTIC   0/13
ENET.POLITICS   0/4
ENET.SOFT   0/11701
ENET.SYSOP   34402
ENET.TALKS   0/32
ENGLISH_TUTOR   0/2000
EVOLUTION   0/1335
FDECHO   0/217
FDN_ANNOUNCE   4818/7068
FIDONEWS   25225
FIDONEWS_OLD1   0/49742
FIDONEWS_OLD2   0/35949
FIDONEWS_OLD3   0/30874
FIDONEWS_OLD4   0/37224
FIDO_SYSOP   12977
FIDO_UTIL   0/180
FILEFIND   0/209
FILEGATE   0/212
Möte HAM, 16786 texter
 lista första sista föregående nästa
Text 4512, 908 rader
Skriven 2011-05-27 00:01:49 av Amsat List (1:323/120.0)
Ärende: [keps]  orb11146.amsa
=============================
[keps]  orb11146.amsa

Return-Path: <keps-bounces@amsat.org>
X-Rcpt: craig.healy@chowda.com
X-UIDL: 1306468178.354

SB KEPS @ AMSAT  $ORB11146.O
Orbital Elements  11146.OSCAR

HR AMSAT ORBITAL ELEMENTS FOR OSCAR SATELLITES
FROM WA5QGD FORT WORTH,TX May 26, 2011
Send Subscribe/unsubscribe to KEPS at http://www.amsat.org/mailman/listinfo/kep
BID: ORB11146.O
TO ALL RADIO AMATEURS BT

Satellite: SO-33
Catalog number: 25509
Epoch time:      11145.80055912
Element set:    0974
Inclination:      031.4339 deg
RA of node:       010.9206 deg
Eccentricity:    0.0353007
Arg of perigee:   045.7768 deg
Mean anomaly:     317.1288 deg
Mean motion:   14.28402902 rev/day
Decay rate:       1.69e-06 rev/day^2
Epoch rev:           65707
Checksum:              298

Satellite: FO-29
Catalog number: 24278
Epoch time:      11145.94362386
Element set:    0596
Inclination:      098.5431 deg
RA of node:       293.0687 deg
Eccentricity:    0.0350111
Arg of perigee:   315.0103 deg
Mean anomaly:     042.3155 deg
Mean motion:   13.52961323 rev/day
Decay rate:        7.1e-07 rev/day^2
Epoch rev:           72945
Checksum:              297

Satellite: AO-07
Catalog number: 07530
Epoch time:      11146.60846355
Element set:      87
Inclination:      101.3915 deg
RA of node:       154.0014 deg
Eccentricity:    0.0011881
Arg of perigee:   323.3489 deg
Mean anomaly:     036.6761 deg
Mean motion:   12.53582509 rev/day
Decay rate:       -2.7e-07 rev/day^2
Epoch rev:           67148
Checksum:              289

Satellite: VO-52
Catalog number: 28650
Epoch time:      11146.69286440
Element set:     803
Inclination:      097.6424 deg
RA of node:       190.7834 deg
Eccentricity:    0.0025809
Arg of perigee:   230.8932 deg
Mean anomaly:     129.0012 deg
Mean motion:   14.82060310 rev/day
Decay rate:       6.15e-06 rev/day^2
Epoch rev:           32756
Checksum:              291

Satellite: HO-68
Catalog number: 36122
Epoch time:      11146.72843402
Element set:     409
Inclination:      100.4162 deg
RA of node:       207.8629 deg
Eccentricity:    0.0007154
Arg of perigee:   274.4174 deg
Mean anomaly:     085.6127 deg
Mean motion:   13.16286482 rev/day
Decay rate:       -4.5e-07 rev/day^2
Epoch rev:            6941
Checksum:              289

Satellite: RS-22
Catalog number: 27939
Epoch time:      11146.75600223
Element set:     293
Inclination:      097.8497 deg
RA of node:       001.7769 deg
Eccentricity:    0.0014622
Arg of perigee:   055.3879 deg
Mean anomaly:     304.8698 deg
Mean motion:   14.63584266 rev/day
Decay rate:       1.89e-06 rev/day^2
Epoch rev:           40920
Checksum:              338

Satellite: SO-67
Catalog number: 35870
Epoch time:      11146.77046693
Element set:     873
Inclination:      097.2819 deg
RA of node:       190.8417 deg
Eccentricity:    0.0003952
Arg of perigee:   093.1506 deg
Mean anomaly:     016.1511 deg
Mean motion:   15.20717874 rev/day
Decay rate:      1.199e-05 rev/day^2
Epoch rev:            9368
Checksum:              330

/EX
SB KEPS @ AMSAT  $ORB11146.D
Orbital Elements  11146.MICROS

HR AMSAT ORBITAL ELEMENTS FOR THE MICROSATS
FROM WA5QGD FORT WORTH,TX May 26, 2011
Send Subscribe/unsubscribe to KEPS at http://www.amsat.org/mailman/listinfo/kep
BID: ORB11146.D
TO ALL RADIO AMATEURS BT

Satellite: AO-51
Catalog number: 28375
Epoch time:      11145.54024374
Element set:    0979
Inclination:      098.0965 deg
RA of node:       125.1797 deg
Eccentricity:    0.0084050
Arg of perigee:   138.0654 deg
Mean anomaly:     222.7000 deg
Mean motion:   14.40756900 rev/day
Decay rate:        8.6e-07 rev/day^2
Epoch rev:           36280
Checksum:              303

Satellite: GO-32
Catalog number: 25397
Epoch time:      11145.55549081
Element set:     487
Inclination:      098.3242 deg
RA of node:       139.3296 deg
Eccentricity:    0.0001596
Arg of perigee:   023.6396 deg
Mean anomaly:     336.4833 deg
Mean motion:   14.23207885 rev/day
Decay rate:      -1.53e-06 rev/day^2
Epoch rev:           66874
Checksum:              331

Satellite: CO-55
Catalog number: 27844
Epoch time:      11145.57142364
Element set:    0118
Inclination:      098.7053 deg
RA of node:       154.6009 deg
Eccentricity:    0.0008895
Arg of perigee:   266.5940 deg
Mean anomaly:     093.4218 deg
Mean motion:   14.20809320 rev/day
Decay rate:        9.8e-07 rev/day^2
Epoch rev:           40970
Checksum:              312

Satellite: CO-57
Catalog number: 27848
Epoch time:      11145.58175272
Element set:      66
Inclination:      098.7120 deg
RA of node:       153.7939 deg
Eccentricity:    0.0008766
Arg of perigee:   270.4244 deg
Mean anomaly:     089.5925 deg
Mean motion:   14.20589276 rev/day
Decay rate:        9.3e-07 rev/day^2
Epoch rev:           40965
Checksum:              345

Satellite: NO-44
Catalog number: 26931
Epoch time:      11145.72468712
Element set:    0760
Inclination:      067.0528 deg
RA of node:       041.4074 deg
Eccentricity:    0.0006949
Arg of perigee:   261.7510 deg
Mean anomaly:     098.2822 deg
Mean motion:   14.29659172 rev/day
Decay rate:        4.0e-08 rev/day^2
Epoch rev:           50371
Checksum:              298

Satellite: CO-65
Catalog number: 32785
Epoch time:      11145.72996194
Element set:    0000
Inclination:      097.8502 deg
RA of node:       210.0506 deg
Eccentricity:    0.0013576
Arg of perigee:   249.0733 deg
Mean anomaly:     110.9036 deg
Mean motion:   14.81987776 rev/day
Decay rate:       -5.3e-07 rev/day^2
Epoch rev:           16621
Checksum:              304

